Location: Lac Lasalle
(46.0398°N, 74.1576°W)
Time: 10:05:49
(UTC-05:00)

AO-73 - Pass Details

Date: 16 December 2019
Orbit: 581 x 664 km, 97.6° (Epoch: 17 January)

Event Time Altitude Azimuth Distance (km) Brightness Sun altitude
Rises 18:58:39 0° 222° (SW) 2,952 ? -27.8°
Reaches altitude 10° 19:03:09 10° 265° (W) 2,028 ? -28.6°
Maximum altitude 19:03:46 10° 273° (W) 2,008 ? -28.7°
Drops below altitude 10° 19:04:24 10° 281° (W) 2,023 ? -28.8°
Sets 19:08:52 0° 324° (NW) 2,912 ? -29.6°
